Tracking 19242 objects as of 20-Sep-2018
HD Live streaming from Space Station
objects crossing your sky now

FENGYUN 1C DEB

Track FENGYUN 1C DEB now!
10-day predictions


NORAD ID: 31172
Int'l Code: 1999-025BJA
Perigee: 690.1 km
Apogee: 911.1 km
Inclination: 98.6 °
Period: 100.7 minutes
Semi major axis: 7171 km
RCS: 0.001 m2 (small)
Launch date: May 10, 1999
Source: People's Republic of China (PRC)
Launch site: Taiyaun Space Center, China (TSC)

Note: This is SATELLITE DEBRIS
aabbcc
Your satellite tracking list
Your tracking list is empty




NASA's NSSDC Master Catalog

Two Line Element Set (TLE):
1 31172U 99025BJA 18262.34211718  .00000029  00000-0  25511-4 0  9994
2 31172  98.6233 290.6204 0154072 134.6938 226.6916 14.29469866599395
Source of the keplerian elements: AFSPC